START_TIME,STEP,MOV.,AL01,t_acc.,AL02,t_acc.,E37,t_acc.,H21,t_acc.
1981-08-29 06:00:34.940 ,0,0,0,24,0,24,0,24,0,24
1981-08-29 06:00:58.940 ,1,1,0,24,0,24,0,24,0,24
1981-08-29 06:01:22.940 ,1,0,0,24,0,24,0,24,0,24
1981-08-29 06:01:46.940 ,2,1,0,24,0,24,0,24,0,24
1981-08-29 06:02:10.940 ,2,0,0,24,0,24,0,24,0,24
1981-08-29 06:02:34.940 ,3,1,0,24,1,24,1,24,0,24
1981-08-29 06:02:58.940 ,3,0,0,24,0,24,1,24,0,24
1981-08-29 06:03:22.940 ,4,1,0,24,0,24,0,24,0,24
1981-08-29 06:03:46.940 ,4,0,0,24,0,24,0,24,0,24
1981-08-29 06:04:10.940 ,5,1,0,24,0,24,1,24,0,24
1981-08-29 06:04:34.940 ,5,0,0,24,0,24,0,24,0,24
1981-08-29 06:04:58.940 ,6,1,0,24,0,24,0,24,0,24
1981-08-29 06:05:22.940 ,6,0,0,24,0,24,0,24,0,24
1981-08-29 06:05:46.940 ,7,1,7,24,0,24,0,24,0,24
1981-08-29 06:06:10.940 ,7,0,27,24,0,24,1,24,0,24
1981-08-29 06:06:34.940 ,7,1,40,24,0,24,0,24,0,24
1981-08-29 06:06:58.940 ,6,1,26,24,0,24,0,24,0,24
1981-08-29 06:07:22.940 ,5,1,0,24,0,24,0,24,0,24
1981-08-29 06:07:46.940 ,4,1,0,24,0,24,0,24,0,24
1981-08-29 06:08:10.940 ,3,1,0,24,0,24,0,24,0,24
1981-08-29 06:08:34.940 ,2,1,0,24,0,24,0,24,0,24
1981-08-29 06:08:58.940 ,1,1,0,24,0,24,2,24,0,24
1981-08-29 06:09:22.940 ,0,1,0,24,0,24,0,24,0,24
1981-08-29 06:09:46.940 ,0,1,0,24,0,24,2,24,0,24
1981-08-29 06:10:10.940 ,1,1,0,24,0,24,1,24,0,24
1981-08-29 06:10:34.940 ,2,1,0,24,0,24,0,24,0,24
1981-08-29 06:10:58.940 ,3,1,0,24,0,24,0,24,0,24
1981-08-29 06:11:22.940 ,4,1,0,24,0,24,0,24,0,24
1981-08-29 06:11:46.940 ,5,1,0,24,0,24,0,24,0,24
1981-08-29 06:12:10.940 ,6,1,0,24,0,24,0,24,0,24
1981-08-29 06:12:34.940 ,7,1,3,24,0,24,0,24,0,24
1981-08-29 06:12:58.940 ,7,1,34,24,0,24,0,24,0,24
1981-08-29 06:13:22.940 ,7,0,32,24,0,24,0,24,0,24
1981-08-29 06:13:46.940 ,6,1,15,24,0,24,0,24,0,24
1981-08-29 06:14:10.940 ,6,0,0,24,0,24,0,24,0,24
1981-08-29 06:14:34.940 ,5,1,0,24,0,24,0,24,0,24
1981-08-29 06:14:58.940 ,5,0,0,24,0,24,1,24,0,24
1981-08-29 06:15:22.940 ,4,1,0,24,0,24,1,24,0,24
1981-08-29 06:15:46.940 ,4,0,0,24,0,24,1,24,0,24
1981-08-29 06:16:10.940 ,3,1,0,24,0,24,0,24,0,24
1981-08-29 06:16:34.940 ,3,0,0,24,0,24,0,24,0,24
1981-08-29 06:16:58.940 ,2,1,0,24,0,24,1,24,0,24
1981-08-29 06:17:22.940 ,2,0,0,24,0,24,0,24,0,24
1981-08-29 06:17:46.940 ,1,1,0,24,0,24,1,24,0,24
1981-08-29 06:18:10.940 ,1,0,0,24,0,24,0,24,0,24
1981-08-29 06:18:34.940 ,0,1,0,24,0,24,0,24,0,24
1981-08-29 06:18:58.940 ,0,0,0,24,0,24,2,24,0,24
1981-08-29 06:19:22.940 ,0,1,0,24,0,24,1,24,0,24
1981-08-29 06:19:46.940 ,0,0,0,24,0,24,0,24,0,24
1981-08-29 06:20:10.940 ,1,1,0,24,0,24,0,24,0,24
1981-08-29 06:20:34.940 ,1,0,0,24,0,24,0,24,0,24
1981-08-29 06:20:58.940 ,2,1,0,24,0,24,0,24,0,24
1981-08-29 06:21:22.940 ,2,0,0,24,0,24,0,24,0,24
1981-08-29 06:21:46.940 ,3,1,0,24,1,24,2,24,0,24
1981-08-29 06:22:10.940 ,3,0,0,24,0,24,2,24,0,24
1981-08-29 06:22:34.940 ,4,1,0,24,0,24,2,24,0,24
1981-08-29 06:22:58.940 ,4,0,0,24,0,24,0,24,0,24
1981-08-29 06:23:22.940 ,5,1,0,24,0,24,0,24,0,24
1981-08-29 06:23:46.940 ,5,0,0,24,0,24,0,24,0,24
1981-08-29 06:24:10.940 ,6,1,0,24,0,24,0,24,0,24
1981-08-29 06:24:34.940 ,6,0,0,24,0,24,0,24,0,24
1981-08-29 06:24:58.940 ,7,1,6,24,0,24,1,24,0,24
1981-08-29 06:25:22.940 ,7,0,33,24,0,24,0,24,0,24
1981-08-29 06:25:46.940 ,7,1,31,24,0,24,0,24,0,24
1981-08-29 06:26:10.940 ,6,1,24,24,0,24,0,24,0,24
1981-08-29 06:26:34.940 ,5,1,0,24,0,24,0,24,0,24
1981-08-29 06:26:58.940 ,4,1,0,24,0,24,0,24,0,24
1981-08-29 06:27:22.940 ,3,1,0,24,0,24,0,24,0,24
1981-08-29 06:27:46.940 ,2,1,0,24,0,24,0,24,0,24
1981-08-29 06:28:10.940 ,1,1,0,24,0,24,0,24,0,24
1981-08-29 06:28:34.940 ,0,1,0,24,0,24,0,24,0,24
1981-08-29 06:28:58.940 ,0,1,1,24,0,24,0,24,0,24
1981-08-29 06:29:22.940 ,1,1,0,24,0,24,0,24,0,24
1981-08-29 06:29:46.940 ,2,1,0,24,0,24,0,24,0,24
1981-08-29 06:30:10.940 ,3,1,0,24,0,24,0,24,0,24
1981-08-29 06:30:34.940 ,4,1,0,24,0,24,0,24,0,24
1981-08-29 06:30:58.940 ,5,1,0,24,0,24,2,24,0,24
1981-08-29 06:31:22.940 ,6,1,0,24,0,24,0,24,0,24
1981-08-29 06:31:46.940 ,0,0,3,24,0,24,1,24,0,24
1981-08-29 06:32:37.940 ,0,0,32,24,0,24,1,24,0,24
1981-08-29 06:32:58.940 ,6,1,17,24,0,24,1,24,0,24
1981-08-29 06:33:22.940 ,6,0,0,24,0,24,2,24,0,24
1981-08-29 06:33:46.940 ,5,1,0,24,0,24,0,24,0,24
1981-08-29 06:34:10.940 ,5,0,0,24,0,24,0,24,0,24
1981-08-29 06:34:34.940 ,4,1,0,24,0,24,0,24,0,24
1981-08-29 06:34:58.940 ,4,0,0,24,0,24,0,24,0,24
1981-08-29 06:35:22.940 ,3,1,0,24,0,24,1,24,0,24
1981-08-29 06:35:46.940 ,3,0,0,24,0,24,0,24,0,24
1981-08-29 06:36:10.940 ,2,1,0,24,0,24,1,24,0,24
1981-08-29 06:36:34.940 ,2,0,0,24,0,24,0,24,0,24
1981-08-29 06:36:58.940 ,1,1,0,24,0,24,0,24,0,24
1981-08-29 06:37:22.940 ,1,0,0,24,0,24,0,24,0,24
1981-08-29 06:37:46.940 ,0,1,0,24,0,24,1,24,0,24
1981-08-29 06:38:10.940 ,0,0,0,24,0,24,1,24,0,24
1981-08-29 06:38:34.940 ,0,1,0,24,0,24,0,24,0,24
1981-08-29 06:38:58.940 ,0,0,0,24,0,24,0,24,0,24
1981-08-29 06:39:22.940 ,1,1,0,24,0,24,0,24,0,24
1981-08-29 06:39:46.940 ,1,0,0,24,0,24,0,24,0,24
1981-08-29 06:40:10.940 ,2,1,0,24,0,24,1,24,0,24
1981-08-29 06:40:34.940 ,2,0,0,24,0,24,0,24,0,24
1981-08-29 06:40:58.940 ,3,1,0,24,0,24,0,24,0,24
1981-08-29 06:41:22.940 ,3,0,0,24,0,24,1,24,0,24
1981-08-29 06:41:46.940 ,4,1,0,24,0,24,0,24,0,24
1981-08-29 06:42:10.940 ,4,0,0,24,0,24,0,24,0,24
1981-08-29 06:42:34.940 ,5,1,0,24,0,24,0,24,0,24
1981-08-29 06:42:58.940 ,5,0,0,24,0,24,0,24,0,24
1981-08-29 06:43:22.940 ,6,1,1,24,0,24,0,24,0,24
1981-08-29 06:43:46.940 ,6,0,0,24,0,24,0,24,0,24
1981-08-29 06:44:10.940 ,7,1,9,24,0,24,0,24,0,24
1981-08-29 06:44:34.940 ,7,0,37,24,0,24,1,24,0,24
1981-08-29 06:44:58.940 ,7,1,26,24,0,24,0,24,0,24
1981-08-29 06:45:22.940 ,6,1,25,24,0,24,0,24,0,24
1981-08-29 06:45:46.940 ,5,1,0,24,0,24,0,24,0,24
1981-08-29 06:46:10.940 ,4,1,0,24,0,24,0,24,0,24
1981-08-29 06:46:34.940 ,3,1,0,24,1,24,0,24,0,24
1981-08-29 06:46:58.940 ,2,1,0,24,0,24,0,24,0,24
1981-08-29 06:47:22.940 ,1,1,0,24,0,24,0,24,0,24
1981-08-29 06:47:46.940 ,0,1,0,24,0,24,0,24,0,24
1981-08-29 06:48:10.940 ,0,1,0,24,0,24,1,24,0,24
1981-08-29 06:48:34.940 ,1,1,0,24,0,24,0,24,0,24
1981-08-29 06:48:58.940 ,2,1,0,24,0,24,0,24,0,24
1981-08-29 06:49:22.940 ,3,1,0,24,0,24,0,24,0,24
1981-08-29 06:49:46.940 ,4,1,0,24,0,24,0,24,0,24
1981-08-29 06:50:10.940 ,5,1,0,24,0,24,0,24,0,24
1981-08-29 06:50:34.940 ,6,1,0,24,0,24,0,24,0,24
1981-08-29 06:50:58.940 ,7,1,7,24,0,24,0,24,0,24
1981-08-29 06:51:22.940 ,7,1,32,24,0,24,0,24,0,24
1981-08-29 06:51:46.940 ,7,0,32,24,0,24,0,24,0,24
1981-08-29 06:52:10.940 ,6,1,29,24,0,24,0,24,0,24
1981-08-29 06:52:34.940 ,6,0,0,24,0,24,0,24,0,24
1981-08-29 06:52:58.940 ,5,1,0,24,0,24,0,24,0,24
1981-08-29 06:53:22.940 ,5,0,0,24,0,24,0,24,0,24
1981-08-29 06:53:46.940 ,4,1,0,24,1,24,0,24,0,24
1981-08-29 06:54:10.940 ,4,0,0,24,0,24,0,24,0,24
1981-08-29 06:54:34.940 ,3,1,0,24,0,24,0,24,0,24
1981-08-29 06:54:58.940 ,3,0,0,24,0,24,0,24,0,24
1981-08-29 06:55:22.940 ,2,1,0,24,0,24,1,24,0,24
1981-08-29 06:55:46.940 ,2,0,0,24,0,24,0,24,0,24
1981-08-29 06:56:10.940 ,1,1,0,24,0,24,0,24,0,24
1981-08-29 06:56:34.940 ,1,0,0,24,0,24,0,24,0,24
1981-08-29 06:56:58.940 ,0,1,0,24,0,24,0,24,0,24
1981-08-29 06:57:22.940 ,0,0,0,24,0,24,0,24,0,24
1981-08-29 06:57:46.940 ,0,1,0,24,0,24,0,24,0,24
1981-08-29 06:58:10.940 ,0,0,0,24,0,24,0,24,0,24
1981-08-29 06:58:34.940 ,1,1,0,24,0,24,1,24,0,24
1981-08-29 06:58:58.940 ,1,0,0,24,0,24,1,24,0,24
1981-08-29 06:59:22.940 ,2,1,0,24,0,24,0,24,0,24
1981-08-29 06:59:46.940 ,2,0,0,24,0,24,0,24,0,24
1981-08-29 07:00:10.940 ,3,1,0,24,0,24,0,24,0,24
1981-08-29 07:00:34.940 ,3,0,0,24,0,24,0,24,0,24
1981-08-29 07:00:58.940 ,4,1,0,24,0,24,0,24,0,24
1981-08-29 07:01:22.940 ,4,0,0,24,0,24,2,24,0,24
1981-08-29 07:01:46.940 ,5,1,0,24,0,24,0,24,0,24
1981-08-29 07:02:10.940 ,5,0,0,24,0,24,0,24,0,24
1981-08-29 07:02:34.940 ,6,1,0,24,0,24,0,24,0,24
1981-08-29 07:02:58.940 ,6,0,0,24,0,24,0,24,0,24
1981-08-29 07:03:22.940 ,7,1,5,24,0,24,0,24,0,24
1981-08-29 07:03:46.940 ,7,0,31,24,0,24,0,24,0,24
1981-08-29 07:04:10.940 ,7,1,22,24,0,24,0,24,0,24
1981-08-29 07:04:34.940 ,6,1,18,24,0,24,0,24,0,24
1981-08-29 07:04:58.940 ,5,1,0,24,0,24,0,24,0,24
1981-08-29 07:05:22.940 ,4,1,0,24,0,24,1,24,0,24
1981-08-29 07:05:46.940 ,3,1,0,24,0,24,0,24,0,24
1981-08-29 07:06:10.940 ,2,1,0,24,0,24,0,24,0,24
1981-08-29 07:06:34.940 ,1,1,0,24,0,24,1,24,0,24
1981-08-29 07:06:58.940 ,0,1,0,24,0,24,1,24,0,24
1981-08-29 07:07:22.940 ,0,1,0,24,0,24,0,24,0,24
1981-08-29 07:07:46.940 ,1,1,0,24,0,24,0,24,0,24
1981-08-29 07:08:10.940 ,2,1,0,24,0,24,0,24,0,24
1981-08-29 07:08:34.940 ,3,1,0,24,0,24,1,24,0,24
1981-08-29 07:08:58.940 ,4,1,0,24,0,24,0,24,0,24
1981-08-29 07:09:22.940 ,5,1,0,24,0,24,0,24,0,24
1981-08-29 07:09:46.940 ,6,1,0,24,0,24,0,24,0,24
1981-08-29 07:10:10.940 ,7,1,9,24,0,24,0,24,0,24
1981-08-29 07:10:34.940 ,7,1,32,24,1,24,1,24,0,24
1981-08-29 07:10:58.940 ,7,0,34,24,0,24,0,24,0,24
1981-08-29 07:11:22.940 ,6,1,23,24,0,24,2,24,0,24
1981-08-29 07:11:46.940 ,6,0,0,24,0,24,1,24,0,24
1981-08-29 07:12:10.940 ,5,1,0,24,0,24,2,24,0,24
1981-08-29 07:12:34.940 ,5,0,0,24,0,24,0,24,0,24
1981-08-29 07:12:58.940 ,4,1,0,24,0,24,0,24,0,24
1981-08-29 07:13:22.940 ,4,0,0,24,0,24,0,24,0,24
1981-08-29 07:13:46.940 ,3,1,0,24,0,24,0,24,0,24
1981-08-29 07:14:10.940 ,3,0,0,24,0,24,0,24,0,24
1981-08-29 07:14:34.940 ,2,1,0,24,0,24,0,24,0,24
1981-08-29 07:14:58.940 ,2,0,0,24,0,24,0,24,0,24
1981-08-29 07:15:22.940 ,1,1,0,24,0,24,0,24,0,24
1981-08-29 07:15:46.940 ,1,0,0,24,0,24,1,24,0,24
1981-08-29 07:16:10.940 ,0,1,0,24,0,24,0,24,0,24
1981-08-29 07:16:34.940 ,0,0,0,24,0,24,1,24,0,24
1981-08-29 07:16:58.940 ,0,1,0,24,0,24,1,24,0,24
1981-08-29 07:17:22.940 ,0,0,0,24,0,24,0,24,0,24
1981-08-29 07:17:46.940 ,1,1,0,24,0,24,0,24,0,24
1981-08-29 07:18:10.940 ,1,0,0,24,0,24,1,24,0,24
1981-08-29 07:18:34.940 ,2,1,0,24,0,24,1,24,0,24
1981-08-29 07:18:58.940 ,2,0,0,24,0,24,1,24,0,24
1981-08-29 07:19:22.940 ,3,1,0,24,0,24,0,24,0,24
1981-08-29 07:19:46.940 ,3,0,0,24,0,24,1,24,0,24
1981-08-29 07:20:10.940 ,4,1,0,24,0,24,0,24,0,24
1981-08-29 07:20:34.940 ,4,0,0,24,0,24,0,24,0,24
1981-08-29 07:20:58.940 ,5,1,0,24,0,24,1,24,0,24
1981-08-29 07:21:22.940 ,5,0,0,24,1,24,0,24,0,24
1981-08-29 07:21:46.940 ,6,1,0,24,0,24,1,24,0,24
1981-08-29 07:22:10.940 ,6,0,0,24,0,24,0,24,0,24
1981-08-29 07:22:34.940 ,7,1,12,24,0,24,0,24,0,24
1981-08-29 07:22:58.940 ,7,0,34,24,0,24,1,24,0,24
1981-08-29 07:23:22.940 ,7,1,30,24,0,24,0,24,0,24
1981-08-29 07:23:46.940 ,6,1,35,24,0,24,0,24,0,24
1981-08-29 07:24:10.940 ,5,1,0,24,0,24,0,24,0,24
1981-08-29 07:24:34.940 ,4,1,0,24,0,24,0,24,0,24
1981-08-29 07:24:58.940 ,3,1,0,24,0,24,0,24,0,24
1981-08-29 07:25:22.940 ,2,1,0,24,0,24,0,24,0,24
1981-08-29 07:25:46.940 ,1,1,0,24,0,24,2,24,0,24
1981-08-29 07:26:10.940 ,0,1,0,24,1,24,2,24,0,24
1981-08-29 07:26:34.940 ,0,1,0,24,0,24,0,24,0,24
1981-08-29 07:26:58.940 ,1,1,0,24,0,24,0,24,0,24
1981-08-29 07:27:22.940 ,2,1,0,24,0,24,0,24,0,24
1981-08-29 07:27:46.940 ,3,1,0,24,0,24,0,24,0,24
1981-08-29 07:28:10.940 ,4,1,0,24,0,24,0,24,0,24
1981-08-29 07:28:34.940 ,5,1,0,24,1,24,0,24,0,24
1981-08-29 07:28:58.940 ,6,1,0,24,0,24,0,24,0,24
1981-08-29 07:29:22.940 ,7,1,12,24,0,24,1,24,0,24
1981-08-29 07:29:46.940 ,7,1,28,24,0,24,1,24,0,24
1981-08-29 07:30:10.940 ,7,0,32,24,0,24,0,24,0,24
1981-08-29 07:30:34.940 ,6,1,25,24,0,24,1,24,0,24
1981-08-29 07:30:58.940 ,6,0,0,24,0,24,0,24,0,24
1981-08-29 07:31:22.940 ,5,1,0,24,0,24,0,24,0,24
1981-08-29 07:31:46.940 ,5,0,0,24,0,24,1,24,0,24
1981-08-29 07:32:10.940 ,4,1,0,24,0,24,1,24,0,24
1981-08-29 07:32:34.940 ,4,0,0,24,0,24,0,24,0,24
1981-08-29 07:32:58.940 ,3,1,0,24,0,24,0,24,0,24
1981-08-29 07:33:22.940 ,3,0,0,24,0,24,0,24,0,24
1981-08-29 07:33:46.940 ,2,1,0,24,0,24,0,24,0,24
1981-08-29 07:34:10.940 ,2,0,0,24,0,24,1,24,0,24
1981-08-29 07:34:34.940 ,1,1,0,24,0,24,0,24,0,24
1981-08-29 07:34:58.940 ,1,0,0,24,0,24,0,24,0,24
1981-08-29 07:35:22.940 ,0,1,0,24,0,24,2,24,0,24
1981-08-29 07:35:46.940 ,0,0,0,24,0,24,0,24,0,24
1981-08-29 07:36:10.940 ,0,1,0,24,0,24,0,24,0,24
1981-08-29 07:36:34.940 ,0,0,0,24,0,24,0,24,0,24
1981-08-29 07:36:58.940 ,1,1,0,24,0,24,0,24,0,24
1981-08-29 07:37:22.940 ,1,0,0,24,0,24,1,24,0,24
1981-08-29 07:37:46.940 ,2,1,0,24,0,24,0,24,0,24
1981-08-29 07:38:10.940 ,2,0,0,24,0,24,0,24,0,24
1981-08-29 07:38:34.940 ,3,1,0,24,0,24,0,24,0,24
1981-08-29 07:38:58.940 ,3,0,0,24,0,24,1,24,0,24
1981-08-29 07:39:22.940 ,4,1,0,24,0,24,0,24,0,24
1981-08-29 07:39:46.940 ,4,0,0,24,0,24,0,24,0,24
1981-08-29 07:40:10.940 ,5,1,0,24,0,24,0,24,0,24
1981-08-29 07:40:34.940 ,5,0,0,24,0,24,1,24,0,24
1981-08-29 07:40:58.940 ,6,1,1,24,0,24,0,24,0,24
1981-08-29 07:41:22.940 ,6,0,0,24,0,24,0,24,0,24
1981-08-29 07:41:46.940 ,7,1,5,24,0,24,1,24,0,24
1981-08-29 07:42:10.940 ,7,0,30,24,0,24,0,24,0,24
1981-08-29 07:42:34.940 ,7,1,25,24,0,24,0,24,0,24
1981-08-29 07:42:58.940 ,6,1,18,24,0,24,0,24,0,24
1981-08-29 07:43:22.940 ,5,1,0,24,0,24,0,24,0,24
1981-08-29 07:43:46.940 ,4,1,0,24,0,24,0,24,0,24
1981-08-29 07:44:10.940 ,3,1,0,24,0,24,0,24,0,24
1981-08-29 07:44:34.940 ,2,1,0,24,0,24,0,24,0,24
1981-08-29 07:44:58.940 ,1,1,0,24,0,24,1,24,0,24
1981-08-29 07:45:22.940 ,0,1,0,24,0,24,1,24,0,24
1981-08-29 07:45:46.940 ,0,1,0,24,0,24,0,24,0,24
1981-08-29 07:46:10.940 ,1,1,0,24,0,24,0,24,0,24
1981-08-29 07:46:34.940 ,2,1,0,24,0,24,0,24,0,24
1981-08-29 07:46:58.940 ,3,1,0,24,0,24,0,24,0,24
1981-08-29 07:47:22.940 ,4,1,0,24,0,24,1,24,0,24
1981-08-29 07:47:46.940 ,5,1,0,24,0,24,0,24,0,24
1981-08-29 07:48:10.940 ,6,1,0,24,0,24,0,24,0,24
1981-08-29 07:48:34.940 ,7,1,9,24,0,24,0,24,0,24
1981-08-29 07:48:58.940 ,7,1,26,24,0,24,0,24,0,24
1981-08-29 07:49:22.940 ,7,0,27,24,0,24,0,24,0,24
1981-08-29 07:49:46.940 ,6,1,21,24,0,24,0,24,0,24
1981-08-29 07:50:10.940 ,6,0,0,24,0,24,1,24,0,24
1981-08-29 07:50:34.940 ,5,1,0,24,0,24,0,24,0,24
1981-08-29 07:50:58.940 ,5,0,0,24,0,24,0,24,0,24
1981-08-29 07:51:22.940 ,4,1,0,24,0,24,0,24,0,24
1981-08-29 07:51:46.940 ,4,0,0,24,0,24,0,24,0,24
1981-08-29 07:52:10.940 ,3,1,0,24,0,24,0,24,0,24
1981-08-29 07:52:34.940 ,3,0,0,24,0,24,1,24,0,24
1981-08-29 07:52:58.940 ,2,1,0,24,0,24,0,24,0,24
1981-08-29 07:53:22.940 ,2,0,0,24,0,24,0,24,0,24
1981-08-29 07:53:46.940 ,1,1,0,24,0,24,0,24,0,24
1981-08-29 07:54:10.940 ,1,0,0,24,0,24,0,24,0,24
1981-08-29 07:54:34.940 ,0,1,0,24,0,24,0,24,0,24
1981-08-29 07:54:58.940 ,0,0,0,24,0,24,1,24,0,24
1981-08-29 07:55:22.940 ,0,1,0,24,0,24,0,24,0,24
1981-08-29 07:55:46.940 ,0,0,0,24,0,24,0,24,0,24
1981-08-29 07:56:10.940 ,1,1,0,24,0,24,1,24,0,24
1981-08-29 07:56:34.940 ,1,0,0,24,0,24,0,24,0,24
1981-08-29 07:56:58.940 ,2,1,0,24,0,24,0,24,0,24
1981-08-29 07:57:22.940 ,2,0,0,24,0,24,0,24,0,24
1981-08-29 07:57:46.940 ,3,1,0,24,0,24,0,24,0,24
1981-08-29 07:58:10.940 ,3,0,0,24,0,24,0,24,0,24
1981-08-29 07:58:34.940 ,4,1,0,24,0,24,1,24,0,24
1981-08-29 07:58:58.940 ,0,0,0,24,0,24,0,24,0,24
1981-08-29 07:59:28.340 ,0,0,0,24,0,24,1,24,0,24
1981-08-29 07:59:46.940 ,0,0,0,24,0,24,0,24,0,24
1981-08-29 08:00:10.940 ,6,1,0,24,0,24,1,24,0,24
1981-08-29 08:00:34.940 ,6,0,0,24,0,24,0,24,0,24
1981-08-29 08:00:58.940 ,7,1,10,24,0,24,1,24,0,24
1981-08-29 08:01:22.940 ,7,0,36,24,0,24,0,24,0,24
1981-08-29 08:01:46.940 ,7,1,24,24,0,24,1,24,0,24
1981-08-29 08:02:10.940 ,6,1,21,24,0,24,0,24,0,24
1981-08-29 08:02:34.940 ,5,1,0,24,0,24,0,24,0,24
1981-08-29 08:02:58.940 ,4,1,0,24,0,24,1,24,0,24
1981-08-29 08:03:22.940 ,3,1,0,24,0,24,0,24,0,24
1981-08-29 08:03:46.940 ,2,1,0,24,0,24,0,24,0,24
1981-08-29 08:04:10.940 ,1,1,0,24,0,24,1,24,0,24
1981-08-29 08:04:34.940 ,0,1,0,24,0,24,1,24,0,24
1981-08-29 08:04:58.940 ,0,1,0,24,0,24,0,24,0,24
1981-08-29 08:05:22.940 ,1,1,0,24,0,24,0,24,0,24
1981-08-29 08:05:46.940 ,2,1,0,24,0,24,1,24,0,24
1981-08-29 08:06:10.940 ,3,1,0,24,0,24,0,24,0,24
1981-08-29 08:06:34.940 ,4,1,0,24,0,24,1,24,0,24
1981-08-29 08:06:58.940 ,5,1,1,24,0,24,0,24,0,24
1981-08-29 08:07:22.940 ,6,1,0,24,0,24,0,24,0,24
1981-08-29 08:07:46.940 ,7,1,7,24,0,24,0,24,0,24
1981-08-29 08:08:10.940 ,7,1,25,24,0,24,0,24,0,24
1981-08-29 08:08:34.940 ,7,0,31,24,0,24,1,24,0,24
1981-08-29 08:08:58.940 ,6,1,20,24,0,24,0,24,0,24
1981-08-29 08:09:22.940 ,6,0,0,24,0,24,0,24,0,24
1981-08-29 08:09:46.940 ,5,1,0,24,0,24,0,24,0,24
1981-08-29 08:10:10.940 ,5,0,0,24,0,24,0,24,0,24
1981-08-29 08:10:34.940 ,4,1,0,24,0,24,0,24,0,24
1981-08-29 08:10:58.940 ,4,0,0,24,0,24,0,24,0,24
1981-08-29 08:11:22.940 ,3,1,0,24,0,24,0,24,0,24
1981-08-29 08:11:46.940 ,3,0,0,24,0,24,0,24,0,24
1981-08-29 08:12:10.940 ,2,1,0,24,0,24,0,24,0,24
1981-08-29 08:12:34.940 ,2,0,0,24,0,24,0,24,0,24
1981-08-29 08:12:58.940 ,1,1,0,24,0,24,0,24,0,24
1981-08-29 08:13:22.940 ,1,0,0,24,0,24,0,24,0,24
1981-08-29 08:13:46.940 ,0,1,0,24,0,24,0,24,0,24
1981-08-29 08:14:10.940 ,0,0,0,24,0,24,1,24,0,24
1981-08-29 08:14:34.940 ,0,1,0,24,0,24,0,24,0,24
1981-08-29 08:14:58.940 ,0,0,0,24,0,24,0,24,0,24
1981-08-29 08:15:22.940 ,1,1,0,24,0,24,0,24,0,24
1981-08-29 08:15:46.940 ,1,0,0,24,0,24,0,24,0,24
1981-08-29 08:16:10.940 ,2,1,0,24,0,24,0,24,0,24
1981-08-29 08:16:34.940 ,2,0,0,24,0,24,0,24,0,24
1981-08-29 08:16:58.930 ,3,1,0,24,0,24,0,24,0,24
1981-08-29 08:17:22.940 ,3,0,0,24,0,24,0,24,0,24
1981-08-29 08:17:46.940 ,4,1,0,24,0,24,1,24,0,24
1981-08-29 08:18:10.940 ,4,0,0,24,1,24,0,24,0,24
1981-08-29 08:18:34.940 ,5,1,0,24,0,24,0,24,0,24
1981-08-29 08:18:58.940 ,5,0,0,24,0,24,1,24,0,24
1981-08-29 08:19:22.940 ,6,1,0,24,0,24,0,24,0,24
1981-08-29 08:19:46.940 ,6,0,0,24,0,24,1,24,0,24
1981-08-29 08:20:10.940 ,7,1,6,24,0,24,0,24,0,24
1981-08-29 08:20:34.940 ,7,0,22,24,0,24,0,24,0,24
1981-08-29 08:20:58.940 ,7,1,28,24,0,24,0,24,0,24
1981-08-29 08:21:22.940 ,6,1,26,24,0,24,0,24,0,24
1981-08-29 08:21:46.940 ,5,1,0,24,0,24,0,24,0,24
1981-08-29 08:22:10.940 ,4,1,0,24,0,24,0,24,0,24
1981-08-29 08:22:34.940 ,3,1,0,24,0,24,0,24,0,24
1981-08-29 08:22:58.940 ,2,1,0,24,0,24,0,24,0,24
1981-08-29 08:23:22.940 ,1,1,1,24,0,24,1,24,0,24
1981-08-29 08:23:46.940 ,0,1,0,24,0,24,0,24,0,24
1981-08-29 08:24:10.940 ,0,1,0,24,0,24,0,24,0,24
1981-08-29 08:24:34.940 ,1,1,0,24,0,24,1,24,0,24
1981-08-29 08:24:58.940 ,2,1,0,24,0,24,0,24,0,24
1981-08-29 08:25:22.940 ,3,1,0,24,0,24,1,24,0,24
1981-08-29 08:25:46.940 ,4,1,0,24,0,24,0,24,0,24
1981-08-29 08:26:10.940 ,5,1,0,24,0,24,0,24,0,24
1981-08-29 08:26:34.940 ,6,1,0,24,0,24,0,24,0,24
1981-08-29 08:26:58.940 ,7,1,6,24,0,24,0,24,0,24
1981-08-29 08:27:22.940 ,7,1,14,24,1,24,0,24,0,24
1981-08-29 08:27:46.940 ,7,0,30,24,0,24,0,24,0,24
1981-08-29 08:28:10.940 ,6,1,18,24,0,24,1,24,0,24
1981-08-29 08:28:34.940 ,6,0,0,24,0,24,0,24,0,24
1981-08-29 08:28:58.940 ,5,1,0,24,0,24,0,24,0,24
1981-08-29 08:29:22.940 ,5,0,0,24,0,24,0,24,0,24
1981-08-29 08:29:46.940 ,4,1,0,24,0,24,1,24,0,24
1981-08-29 08:30:10.940 ,4,0,0,24,0,24,0,24,0,24
1981-08-29 08:30:34.940 ,3,1,0,24,0,24,0,24,0,24
1981-08-29 08:30:58.940 ,3,0,0,24,0,24,0,24,0,24
1981-08-29 08:31:22.940 ,2,1,0,24,0,24,0,24,0,24
1981-08-29 08:31:46.940 ,2,0,0,24,0,24,0,24,0,24
1981-08-29 08:32:10.940 ,1,1,0,24,0,24,0,24,0,24
1981-08-29 08:32:34.940 ,1,0,0,24,0,24,0,24,0,24
1981-08-29 08:32:58.940 ,0,1,0,24,0,24,0,24,0,24
1981-08-29 08:33:22.940 ,0,0,0,24,0,24,1,24,0,24
1981-08-29 08:33:46.930 ,0,1,0,24,0,24,0,24,0,24
1981-08-29 08:34:10.930 ,0,0,0,24,0,24,1,24,0,24
1981-08-29 08:34:10.930 ,0,0,0,24,0,24,1,24,0,24
1981-08-29 08:34:34.930 ,1,1,0,24,1,24,1,24,0,24
1981-08-29 08:34:58.930 ,1,0,0,24,0,24,0,24,0,24
1981-08-29 08:35:22.930 ,2,1,0,24,0,24,0,24,0,24
1981-08-29 08:35:46.930 ,2,0,0,24,0,24,0,24,0,24
1981-08-29 08:36:10.930 ,3,1,0,24,0,24,0,24,0,24
1981-08-29 08:36:34.930 ,3,0,0,24,0,24,0,24,0,24
1981-08-29 08:36:58.930 ,4,1,0,24,0,24,0,24,0,24
1981-08-29 08:37:22.930 ,4,0,0,24,0,24,0,24,0,24
1981-08-29 08:37:46.930 ,5,1,0,24,0,24,0,24,0,24
1981-08-29 08:38:10.930 ,5,0,1,24,0,24,0,24,0,24
1981-08-29 08:38:34.930 ,6,1,0,24,0,24,1,24,0,24
1981-08-29 08:38:58.930 ,6,0,0,24,0,24,1,24,0,24
1981-08-29 08:39:22.930 ,7,1,5,24,0,24,0,24,0,24
1981-08-29 08:39:46.930 ,7,0,32,24,0,24,0,24,0,24
1981-08-29 08:40:10.930 ,7,1,24,24,0,24,1,24,0,24
1981-08-29 08:40:34.930 ,6,1,22,24,0,24,1,24,0,24
1981-08-29 08:40:58.930 ,5,1,0,24,0,24,1,24,0,24
1981-08-29 08:41:22.930 ,4,1,0,24,0,24,0,24,0,24
1981-08-29 08:41:46.930 ,3,1,0,24,0,24,0,24,0,24
1981-08-29 08:42:10.930 ,2,1,0,24,0,24,0,24,0,24
1981-08-29 08:42:34.930 ,1,1,0,24,0,24,1,24,0,24
1981-08-29 08:42:58.930 ,0,1,0,24,0,24,0,24,0,24
1981-08-29 08:43:22.930 ,0,1,0,24,0,24,0,24,0,24
1981-08-29 08:43:46.930 ,1,1,0,24,0,24,0,24,0,24
1981-08-29 08:44:10.930 ,2,1,0,24,0,24,0,24,0,24
1981-08-29 08:44:34.930 ,3,1,1,24,0,24,0,24,0,24
1981-08-29 08:44:58.930 ,4,1,0,24,0,24,0,24,0,24
1981-08-29 08:45:22.930 ,5,1,0,24,0,24,1,24,0,24
1981-08-29 08:45:46.930 ,6,1,0,24,1,24,0,24,0,24
1981-08-29 08:46:10.930 ,7,1,8,24,0,24,1,24,0,24
1981-08-29 08:46:34.930 ,7,1,27,24,0,24,0,24,0,24
1981-08-29 08:46:58.930 ,7,0,26,24,0,24,1,24,0,24
1981-08-29 08:47:22.930 ,6,1,30,24,0,24,1,24,0,24
1981-08-29 08:47:46.930 ,6,0,0,24,0,24,1,24,0,24
1981-08-29 08:48:10.930 ,5,1,0,24,0,24,0,24,0,24
1981-08-29 08:48:34.930 ,5,0,0,24,0,24,0,24,0,24
1981-08-29 08:48:58.930 ,4,1,1,24,0,24,0,24,0,24
1981-08-29 08:49:22.930 ,4,0,0,24,0,24,0,24,0,24
1981-08-29 08:49:46.930 ,3,1,0,24,0,24,0,24,0,24
1981-08-29 08:50:10.930 ,3,0,0,24,0,24,0,24,0,24
1981-08-29 08:50:34.930 ,2,1,0,24,0,24,0,24,0,24
1981-08-29 08:50:58.930 ,2,0,0,24,0,24,0,24,0,24
1981-08-29 08:51:22.930 ,1,1,0,24,0,24,0,24,0,24
1981-08-29 08:51:46.930 ,1,0,0,24,0,24,0,24,0,24
1981-08-29 08:52:10.930 ,0,1,0,24,0,24,1,24,0,24
1981-08-29 08:52:34.930 ,0,0,0,24,0,24,0,24,0,24
1981-08-29 08:52:58.930 ,0,1,0,24,0,24,0,24,0,24
1981-08-29 08:53:22.930 ,0,0,0,24,0,24,0,24,0,24
1981-08-29 08:53:46.930 ,1,1,0,24,0,24,3,24,0,24
1981-08-29 08:54:10.930 ,1,0,0,24,1,24,0,24,0,24
1981-08-29 08:54:34.930 ,2,1,0,24,0,24,0,24,0,24
1981-08-29 08:54:58.930 ,2,0,0,24,0,24,1,24,0,24
1981-08-29 08:55:22.930 ,3,1,1,24,0,24,0,24,0,24
1981-08-29 08:55:46.930 ,3,0,0,24,0,24,0,24,0,24
1981-08-29 08:56:10.930 ,4,1,1,24,0,24,0,24,0,24
1981-08-29 08:56:34.930 ,4,0,0,24,0,24,0,24,0,24
1981-08-29 08:56:58.930 ,5,1,0,24,0,24,0,24,0,24
1981-08-29 08:57:22.930 ,5,0,0,24,0,24,0,24,0,24
1981-08-29 08:57:46.930 ,6,1,0,24,0,24,0,24,0,24
1981-08-29 08:58:10.930 ,6,0,0,24,0,24,1,24,0,24
1981-08-29 08:58:34.930 ,7,1,8,24,0,24,0,24,0,24
1981-08-29 08:58:58.930 ,7,0,31,24,0,24,1,24,0,24
1981-08-29 08:59:22.930 ,7,1,32,24,0,24,0,24,0,24
1981-08-29 08:59:46.930 ,6,1,22,24,0,24,0,24,0,24
1981-08-29 09:00:10.930 ,5,1,0,24,0,24,0,24,0,24
